This is the latest recevied weather packets stored in our database for station/object K1WJY. If no packets are shown the sender has not sent any weather packets the latest 10 day(s).
| Time | Temp. | Humidity | Pressure | Rain* | Wind** | Luminosity | Snow |
|---|---|---|---|---|---|---|---|
| 1787678201 | 25.56° C | 72% | 1014.3 hPa | 0 mm | - | 673 W/m² | - |
| 1787677896 | 26.11° C | 71% | 1014.2 hPa | 0 mm | - | 710 W/m² | - |
| 1787677595 | 26.11° C | 71% | 1014.5 hPa | 0 mm | - | 265 W/m² | - |
| 1787677295 | 25.56° C | 74% | 1014.3 hPa | 0 mm | - | 723 W/m² | - |
| 1787676994 | 25.56° C | 74% | 1014.2 hPa | 0 mm | - | 747 W/m² | - |
| 1787676689 | 26.11° C | 71% | 1014.5 hPa | 0 mm | - | 748 W/m² | - |
| 1787676385 | 26.11° C | 71% | 1014.5 hPa | 0 mm | - | 749 W/m² | - |
| 1787676081 | 26.11° C | 73% | 1014.5 hPa | 0 mm | - | 736 W/m² | - |
| 1787675777 | 25° C | 73% | 1014.6 hPa | 0 mm | - | 709 W/m² | - |
| 1787675473 | 25° C | 73% | 1014.8 hPa | 0 mm | - | 304 W/m² | - |
| 1787675170 | 25.56° C | 72% | 1014.4 hPa | 0 mm | - | 365 W/m² | - |
| 1787674866 | 25° C | 71% | 1014.7 hPa | 0 mm | - | 357 W/m² | - |
| 1787674561 | 25.56° C | 69% | 1014.7 hPa | 0 mm | - | 234 W/m² | - |
| 1787674256 | 25.56° C | 69% | 1014.6 hPa | 0 mm | - | 690 W/m² | - |
| 1787673955 | 25.56° C | 71% | 1014.7 hPa | 0 mm | - | 681 W/m² | - |
| 1787673651 | 25° C | 71% | 1014.8 hPa | 0 mm | - | 705 W/m² | - |
| 1787673346 | 25.56° C | 71% | 1014.7 hPa | 0 mm | - | 674 W/m² | - |
| 1787673046 | 25.56° C | 72% | 1014.8 hPa | 0 mm | - | 661 W/m² | - |
| 1787672740 | 25.56° C | 73% | 1014.7 hPa | 0 mm | - | 668 W/m² | - |
| 1787672436 | 25° C | 73% | 1014.9 hPa | 0 mm | - | 660 W/m² | - |
| 1787672136 | 25° C | 74% | 1015 hPa | 0 mm | - | 658 W/m² | - |
| 1787671836 | 25° C | 75% | 1015.2 hPa | 0 mm | - | 654 W/m² | - |
| 1787671531 | 24.44° C | 77% | 1015.1 hPa | 0 mm | - | 652 W/m² | - |
| 1787671227 | 24.44° C | 77% | 1015.4 hPa | 0 mm | - | 650 W/m² | - |
| 1787670926 | 23.89° C | 78% | 1015.2 hPa | 0 mm | - | 639 W/m² | - |
* Rain latest hour (hover to see other rain measurements)
** Current wind speed in m/s (hover to see current wind gust speed)